Location: Limerick
(52.6650°N, 8.6230°W)
Time: 19:52:19
(UTC+00:00)

Amateur Radio Satellites - All Passes

Search period start: 18 January 2018 19:22
Search period end: 19 January 2018 19:22
Location: Limerick, 52.6650°N, 8.6230°W

Satellite Date Start Highest point End Downlink Frequencies (MHz)
Time Altitude Azimuth
FO-29 18 Jan 19:28:55 19:31:50 15° 85° (E) 19:34:43 435.910
DELFI C3 18 Jan 19:30:26 19:31:55 12° 55° (NE) 19:33:23 145.870
XW-2A 18 Jan 19:41:21 19:44:45 62° 259° (W) 19:48:10 145.665 - 145.685
HO-68 18 Jan 19:42:19 19:48:42 34° 266° (W) 19:55:07 435.675
PCSat 18 Jan 19:45:56 19:51:19 65° 237° (WSW) 19:56:42 145.827
Oscar 11 18 Jan 19:48:25 19:52:45 69° 72° (ENE) 19:57:07 .
BEESAT 3 18 Jan 19:57:15 20:00:28 24° 242° (WSW) 20:03:36 437.485
AAUSAT CUBESAT 2 18 Jan 19:59:17 20:03:12 41° 262° (W) 20:07:09 437.432
CUBEBUG 2 18 Jan 19:59:22 20:02:51 23° 270° (W) 20:06:27 437.445
NO-84 18 Jan 20:02:35 20:05:28 71° 156° (SSE) 20:08:18 435.350 FM
UWE-3 18 Jan 20:10:08 20:14:00 29° 267° (W) 20:17:59 435.000/436.395/437.385
SEEDS 18 Jan 20:10:24 20:13:15 18° 271° (W) 20:16:08 437.485
CUTE 1.7 + AOD 2 18 Jan 20:20:15 20:20:37 10° 276° (W) 20:20:58 437.475
STRAND 1 18 Jan 20:21:35 20:26:45 79° 105° (ESE) 20:31:55 437.568
AO-85 18 Jan 20:28:45 20:33:27 58° 41° (NE) 20:38:29 145.980
KKS-1 18 Jan 20:30:19 20:31:02 10° 311° (NW) 20:31:45 437.445
BEESAT 2 18 Jan 20:37:58 20:41:34 32° 239° (WSW) 20:45:06 435.950
ZACube-1 18 Jan 20:40:19 20:44:06 27° 268° (W) 20:47:59 437.345
Max Valier Satellite 18 Jan 20:42:20 20:45:45 34° 67° (ENE) 20:49:11 145.860
AO-73 18 Jan 20:48:59 20:52:41 25° 268° (W) 20:56:28 145.935
STARS 18 Jan 20:53:12 20:55:10 13° 308° (NW) 20:57:07 437.465
UNISAT 6 18 Jan 20:54:40 20:56:18 12° 84° (E) 20:57:57 437.425
DELFI C3 18 Jan 21:02:04 21:05:59 80° 74° (ENE) 21:09:55 145.870
EO-88 18 Jan 21:07:43 21:11:11 43° 70° (ENE) 21:14:41 145.990 - 145.960
FO-29 18 Jan 21:12:33 21:17:56 88° 121° (ESE) 21:23:07 435.910
Oscar 11 18 Jan 21:26:29 21:29:21 17° 272° (W) 21:32:15 .
PCSat 18 Jan 21:31:22 21:33:42 13° 257° (WSW) 21:36:04 145.827
ESTCUBE 1 18 Jan 21:38:28 21:41:40 19° 57° (ENE) 21:44:52 437.505/2401.250
NO-84 18 Jan 21:39:55 21:42:43 50° 357° (N) 21:45:29 435.350 FM
YUBILEINY 18 Jan 21:51:00 21:56:12 17° 70° (ENE) 22:01:22 435.215
STRAND 1 18 Jan 22:01:36 22:05:25 22° 305° (NW) 22:09:14 437.568
AO-85 18 Jan 22:09:23 22:13:45 34° 240° (WSW) 22:18:22 145.980
SPROUT 18 Jan 22:10:35 22:11:42 11° 51° (NE) 22:12:50 437.525
TIGRISAT 18 Jan 22:14:36 22:19:12 51° 99° (E) 22:23:47 435.000
Max Valier Satellite 18 Jan 22:16:30 22:19:38 25° 266° (W) 22:22:48 145.860
UNISAT 6 18 Jan 22:29:06 22:33:50 74° 103° (ESE) 22:38:32 437.425
LO-87 18 Jan 22:35:37 22:39:08 59° 71° (ENE) 22:42:41 145.935 - 145.965
DELFI C3 18 Jan 22:39:36 22:41:15 12° 273° (W) 22:42:57 145.870
EO-88 18 Jan 22:42:18 22:45:01 19° 268° (W) 22:47:46 145.990 - 145.960
FO-29 18 Jan 22:58:43 23:02:21 19° 309° (NW) 23:05:54 435.910
nSIGHT-1 18 Jan 23:10:41 23:13:37 35° 156° (SSE) 23:16:34 .
ISS 18 Jan 23:13:04 23:15:59 30° 153° (SSE) 23:18:54 437.550
ESTCUBE 1 18 Jan 23:13:27 23:18:00 73° 257° (WSW) 23:22:32 437.505/2401.250
NO-84 18 Jan 23:17:12 23:20:02 78° 17° (NNE) 23:22:54 435.350 FM
POLYITAN 1 18 Jan 23:25:19 23:27:26 13° 87° (E) 23:29:30 437.675
VELOX 1 18 Jan 23:25:33 23:29:19 29° 62° (ENE) 23:33:06 145.980
PRISM 18 Jan 23:30:54 23:34:59 72° 104° (ESE) 23:39:03 437.425
SPROUT 18 Jan 23:42:33 23:46:45 62° 71° (ENE) 23:50:59 437.525
YUBILEINY 18 Jan 23:42:34 23:51:16 66° 93° (E) 23:59:57 435.215
NANOSAT C BR1 18 Jan 23:42:57 23:45:48 17° 89° (E) 23:48:39 145.865
AIST 2D 18 Jan 23:48:30 23:51:58 59° 101° (E) 23:55:24 435.315
TIGRISAT 18 Jan 23:51:43 23:55:38 27° 299° (WNW) 23:59:35 435.000
DX 1 18 Jan 23:51:44 23:54:08 15° 54° (NE) 23:56:32 434.975-435.025
QB50P2 18 Jan 23:53:40 23:57:18 26° 93° (E) 00:00:55 145.880/145.840
UNISAT 6 19 Jan 00:06:39 00:10:03 20° 302° (WNW) 00:13:28 437.425
LO-87 19 Jan 00:10:56 00:12:53 14° 271° (W) 00:14:52 145.935 - 145.965
EO-79 19 Jan 00:25:16 00:29:25 45° 99° (E) 00:33:32 145.935-145.965
DUCHIFAT 1 19 Jan 00:27:29 00:31:29 37° 97° (E) 00:35:27 145.980
nSIGHT-1 19 Jan 00:46:24 00:49:34 73° 176° (S) 00:52:45 .
ISS 19 Jan 00:48:56 00:52:11 70° 173° (S) 00:55:28 437.550
ESTCUBE 1 19 Jan 00:54:26 00:55:37 11° 276° (W) 00:56:48 437.505/2401.250
NO-84 19 Jan 00:54:34 00:56:58 24° 216° (SW) 00:59:26 435.350 FM
MOZHAYETS 4 19 Jan 00:57:02 00:59:23 14° 52° (NE) 01:01:44
POLYITAN 1 19 Jan 00:59:29 01:03:49 87° 291° (WNW) 01:08:07 437.675
VELOX 1 19 Jan 01:01:28 01:05:37 41° 261° (W) 01:09:49 145.980
PRISM 19 Jan 01:07:10 01:09:47 17° 303° (WNW) 01:12:23 437.425
50 SAT 19 Jan 01:07:12 01:10:10 45° 71° (ENE) 01:13:10 437.505
NANOSAT C BR1 19 Jan 01:17:41 01:21:57 66° 288° (WNW) 01:26:11 145.865
UKube-1 19 Jan 01:19:12 01:23:21 49° 68° (ENE) 01:27:31 .
SPROUT 19 Jan 01:20:05 01:23:02 18° 270° (W) 01:26:01 437.525
Gurwin Techsat 1B 19 Jan 01:20:13 01:24:04 20° 89° (E) 01:27:54 435.225
AIST 2D 19 Jan 01:22:42 01:24:43 15° 300° (WNW) 01:26:44 435.315
O/OREOS (USA 219) 19 Jan 01:25:11 01:29:26 42° 110° (ESE) 01:33:41 437.305
DX 1 19 Jan 01:25:20 01:29:40 85° 77° (ENE) 01:34:02 434.975-435.025
QB50P2 19 Jan 01:29:10 01:33:14 43° 293° (WNW) 01:37:18 145.880/145.840
ITUPSAT 1 19 Jan 01:37:42 01:41:08 20° 55° (NE) 01:44:35 437.325
BUGSAT 1 19 Jan 01:38:57 01:43:06 49° 100° (E) 01:47:14 437.445
YUBILEINY 19 Jan 01:40:37 01:48:42 39° 298° (WNW) 01:56:48 435.215
Oscar 19 19 Jan 01:54:13 01:59:12 44° 98° (E) 02:04:07 437.125/150
EO-79 19 Jan 02:01:24 02:04:58 26° 298° (WNW) 02:08:30 145.935-145.965
DUCHIFAT 1 19 Jan 02:03:19 02:07:02 30° 297° (WNW) 02:10:46 145.980
AO-91 19 Jan 02:04:34 02:08:43 61° 102° (ESE) 02:13:20 145.960
BEESAT 19 Jan 02:17:51 02:22:16 39° 64° (ENE) 02:26:43 436.000
nSIGHT-1 19 Jan 02:22:31 02:25:39 55° 195° (SSW) 02:28:46 .
ISS 19 Jan 02:25:21 02:28:35 62° 192° (SSW) 02:31:50 437.550
CUBESAT XI-V 19 Jan 02:28:35 02:32:20 24° 60° (ENE) 02:36:06 437.345
MOZHAYETS 4 19 Jan 02:31:08 02:35:45 72° 73° (ENE) 02:40:25
POLYITAN 1 19 Jan 02:36:34 02:38:58 15° 305° (NW) 02:41:20 437.675
50 SAT 19 Jan 02:40:31 02:42:08 13° 269° (W) 02:43:47 437.505
AO-7 19 Jan 02:44:13 02:50:23 22° 87° (E) 02:56:27 .
NANOSAT C BR1 19 Jan 02:55:23 02:56:51 12° 308° (NW) 02:58:19 145.865
UKube-1 19 Jan 02:56:11 02:59:37 23° 267° (W) 03:03:03 .
ITAMSAT 1 19 Jan 02:57:09 02:58:47 11° 83° (E) 03:00:24 435.822/435.867
Gurwin Techsat 1B 19 Jan 02:59:18 03:04:38 78° 289° (WNW) 03:09:57 435.225
DX 1 19 Jan 03:04:16 03:06:29 14° 273° (W) 03:08:41 434.975-435.025
O/OREOS (USA 219) 19 Jan 03:04:52 03:08:57 33° 311° (NW) 03:13:03 437.305
ITUPSAT 1 19 Jan 03:13:40 03:18:27 78° 256° (WSW) 03:23:16 437.325
BUGSAT 1 19 Jan 03:14:48 03:18:12 24° 299° (WNW) 03:21:36 437.445
Oscar 19 19 Jan 03:33:46 03:38:27 35° 298° (WNW) 03:43:05 437.125/150
AO-91 19 Jan 03:41:50 03:44:55 21° 298° (WNW) 03:48:14 145.960
YUBILEINY 19 Jan 03:45:20 03:48:51 13° 327° (NNW) 03:52:23 435.215
BEESAT 19 Jan 03:55:45 04:00:05 34° 264° (W) 04:04:29 436.000
nSIGHT-1 19 Jan 03:59:05 04:01:23 18° 214° (SW) 04:03:40 .
DOVE 4 19 Jan 04:01:35 04:02:24 10° 85° (E) 04:03:12 437.250
ISS 19 Jan 04:02:02 04:04:43 23° 211° (SSW) 04:07:22 437.550
CUBESAT XI-V 19 Jan 04:04:45 04:09:23 58° 259° (W) 04:14:02 437.345
MOZHAYETS 4 19 Jan 04:10:17 04:13:26 18° 272° (W) 04:16:36
KKS-1 19 Jan 04:18:18 04:22:27 42° 67° (ENE) 04:26:39 437.445
ITAMSAT 1 19 Jan 04:34:05 04:39:16 66° 103° (ESE) 04:44:27 435.822/435.867
AO-7 19 Jan 04:36:03 04:44:29 79° 109° (ESE) 04:52:52 .
Gurwin Techsat 1B 19 Jan 04:40:25 04:43:49 17° 309° (NW) 04:47:12 435.225
STARS 19 Jan 04:41:32 04:45:23 31° 63° (ENE) 04:49:15 437.465
O/OREOS (USA 219) 19 Jan 04:49:18 04:49:48 10° 335° (NNW) 04:50:19 437.305
ITUPSAT 1 19 Jan 04:55:05 04:57:06 12° 275° (W) 04:59:07 437.325
M-CUBED/EXP-1 PRIME 19 Jan 05:34:42 05:38:05 43° 106° (ESE) 05:41:15 437.505
DOVE 4 19 Jan 05:36:33 05:40:49 77° 104° (ESE) 05:45:14 437.250
XW-2F 19 Jan 05:43:26 05:45:35 15° 89° (E) 05:47:43 145.980 - 146.000
SO-50 19 Jan 05:44:42 05:47:16 15° 112° (ESE) 05:49:51 436.795
KAITUO 1B 19 Jan 05:46:25 05:47:56 12° 87° (E) 05:49:27 145.475/437.950
FO-29 19 Jan 05:47:28 05:51:51 20° 52° (NE) 05:55:57 435.910
XW-2D 19 Jan 05:50:35 05:53:20 19° 91° (E) 05:56:04 145.860 - 145.880
CUTE-I 19 Jan 05:50:52 05:54:41 20° 89° (E) 05:58:28 437.470
KKS-1 19 Jan 05:55:21 05:59:09 28° 265° (W) 06:02:59 437.445
NUDT-PHONESAT 19 Jan 06:01:07 06:03:29 16° 90° (E) 06:05:51 437.300
STRAND 1 19 Jan 06:04:58 06:09:35 36° 62° (ENE) 06:14:13 437.568
XW-2B 19 Jan 06:07:45 06:11:00 26° 94° (E) 06:14:13 145.730 - 145.750
ITAMSAT 1 19 Jan 06:14:10 06:18:21 25° 303° (WNW) 06:22:33 435.822/435.867
STARS 19 Jan 06:17:36 06:21:39 37° 262° (W) 06:25:45 437.465
CUTE 1.7 + AOD 2 19 Jan 06:19:55 06:22:03 13° 86° (E) 06:24:09 437.475
AO-7 19 Jan 06:29:19 06:36:39 36° 312° (NW) 06:43:59 .
LilacSat-2 19 Jan 06:32:23 06:36:08 52° 100° (E) 06:39:49 437.200
XW-2C 19 Jan 06:37:38 06:41:22 55° 100° (E) 06:45:04 145.795 - 145.815
HO-68 19 Jan 07:02:09 07:08:48 39° 96° (E) 07:15:24 435.675
M-CUBED/EXP-1 PRIME 19 Jan 07:09:38 07:12:14 20° 307° (NW) 07:14:44 437.505
DOVE 4 19 Jan 07:15:22 07:18:03 17° 302° (WNW) 07:20:48 437.250
XW-2F 19 Jan 07:16:22 07:20:05 62° 288° (WNW) 07:23:46 145.980 - 146.000
KAITUO 1B 19 Jan 07:18:41 07:22:24 74° 286° (WNW) 07:26:05 145.475/437.950
SO-50 19 Jan 07:22:32 07:27:01 82° 131° (SE) 07:31:37 436.795
XW-2D 19 Jan 07:24:06 07:27:45 46° 290° (WNW) 07:31:21 145.860 - 145.880
FO-29 19 Jan 07:29:30 07:36:15 77° 72° (ENE) 07:42:13 435.910
CUTE-I 19 Jan 07:30:00 07:35:21 79° 288° (WNW) 07:40:40 437.470
NUDT-PHONESAT 19 Jan 07:34:01 07:37:39 53° 288° (WNW) 07:41:13 437.300
AAUSAT CUBESAT 2 19 Jan 07:35:26 07:38:34 21° 91° (E) 07:41:40 437.432
RS-15 19 Jan 07:39:17 07:48:43 27° 101° (E) 07:57:59 29.354- 29.394
XW-2B 19 Jan 07:41:47 07:45:13 33° 293° (WNW) 07:48:36 145.730 - 145.750
CUBEBUG 2 19 Jan 07:42:26 07:47:06 55° 99° (E) 07:51:47 437.445
STRAND 1 19 Jan 07:43:54 07:48:43 42° 262° (W) 07:53:35 437.568
TIGRISAT 19 Jan 07:44:31 07:47:08 15° 54° (NE) 07:49:46 435.000
SEEDS 19 Jan 07:46:12 07:50:18 54° 100° (E) 07:54:23 437.485
YUBILEINY 19 Jan 07:49:18 07:53:56 15° 38° (NE) 07:58:32 435.215
UWE-3 19 Jan 07:52:42 07:57:10 42° 97° (E) 08:01:35 435.000/436.395/437.385
CUTE 1.7 + AOD 2 19 Jan 07:54:13 07:58:28 82° 285° (WNW) 08:02:40 437.475
UNISAT 6 19 Jan 07:58:17 08:01:36 21° 58° (ENE) 08:04:58 437.425
LilacSat-2 19 Jan 08:07:21 08:10:05 19° 299° (WNW) 08:12:47 437.200
O/OREOS (USA 219) 19 Jan 08:12:02 08:13:23 11° 28° (NNE) 08:14:45 437.305
XW-2C 19 Jan 08:12:35 08:15:12 18° 300° (WNW) 08:17:48 145.795 - 145.815
ZACube-1 19 Jan 08:21:33 08:25:58 43° 98° (E) 08:30:18 437.345
AO-7 19 Jan 08:22:45 08:27:06 15° 338° (NNW) 08:31:27 .
XW-2A 19 Jan 08:29:24 08:32:45 57° 102° (ESE) 08:36:03 145.665 - 145.685
AO-73 19 Jan 08:29:45 08:34:10 45° 98° (E) 08:38:30 145.935
HO-68 19 Jan 08:49:52 08:56:51 57° 297° (WNW) 09:03:48 435.675
PRISM 19 Jan 08:52:00 08:54:36 17° 57° (ENE) 08:57:12 437.425
KAITUO 1B 19 Jan 08:55:08 08:55:40 10° 306° (NW) 08:56:11 145.475/437.950
SO-50 19 Jan 09:04:00 09:07:58 29° 334° (NNW) 09:12:02 436.795
Oscar 11 19 Jan 09:05:34 09:09:54 63° 102° (ESE) 09:14:11 .
AAUSAT CUBESAT 2 19 Jan 09:10:18 09:14:17 50° 290° (WNW) 09:18:15 437.432
CUTE-I 19 Jan 09:11:12 09:14:38 18° 309° (NW) 09:18:04 437.470
FO-29 19 Jan 09:16:33 09:21:52 24° 269° (W) 09:26:45 435.910
TIGRISAT 19 Jan 09:18:41 09:23:07 85° 72° (ENE) 09:27:42 435.000
CUBEBUG 2 19 Jan 09:19:32 09:23:26 26° 299° (WNW) 09:27:21 437.445
SEEDS 19 Jan 09:22:30 09:25:41 21° 299° (WNW) 09:28:50 437.485
UWE-3 19 Jan 09:29:21 09:33:30 32° 296° (WNW) 09:37:37 435.000/436.395/437.385
CUTE 1.7 + AOD 2 19 Jan 09:31:34 09:33:38 13° 305° (NW) 09:35:41 437.475
UNISAT 6 19 Jan 09:33:27 09:37:52 66° 258° (WSW) 09:42:26 437.425
Max Valier Satellite 19 Jan 09:40:00 09:42:52 21° 92° (E) 09:45:43 145.860
YUBILEINY 19 Jan 09:45:15 09:53:38 46° 66° (ENE) 10:01:55 435.215
RS-15 19 Jan 09:47:04 09:59:21 77° 126° (SE) 10:11:22 29.354- 29.394
O/OREOS (USA 219) 19 Jan 09:49:54 09:54:07 38° 51° (NE) 09:58:18 437.305
EO-79 19 Jan 09:50:18 09:52:03 12° 53° (NE) 09:53:48 145.935-145.965
DUCHIFAT 1 19 Jan 09:53:03 09:53:43 10° 51° (NE) 09:54:24 145.980
BEESAT 3 19 Jan 09:53:11 09:54:46 12° 111° (ESE) 09:56:21 437.485
ZACube-1 19 Jan 09:58:06 10:02:06 30° 297° (WNW) 10:06:03 437.345
XW-2A 19 Jan 10:03:06 10:05:03 15° 300° (WNW) 10:06:58 145.665 - 145.685
EO-88 19 Jan 10:03:52 10:06:54 24° 94° (E) 10:09:55 145.990 - 145.960
AO-73 19 Jan 10:06:18 10:10:13 28° 297° (WNW) 10:14:04 145.935
DELFI C3 19 Jan 10:07:18 10:11:11 57° 100° (E) 10:15:03 145.870
AO-7 19 Jan 10:13:56 10:16:29 12° 5° (N) 10:19:02 .
POLYITAN 1 19 Jan 10:22:48 10:26:05 22° 60° (ENE) 10:29:23 437.675
PRISM 19 Jan 10:25:21 10:29:24 72° 255° (WSW) 10:33:29 437.425
AIST 2D 19 Jan 10:27:41 10:31:07 53° 72° (ENE) 10:34:34 435.315
PCSat 19 Jan 10:33:30 10:38:19 34° 114° (ESE) 10:43:10 145.827
HO-68 19 Jan 10:38:40 10:43:13 18° 320° (NW) 10:47:45 435.675
NANOSAT C BR1 19 Jan 10:40:07 10:43:42 27° 62° (ENE) 10:47:18 145.865
Oscar 11 19 Jan 10:42:28 10:45:39 20° 301° (WNW) 10:48:49 .
SO-50 19 Jan 10:46:31 10:49:47 19° 359° (N) 10:53:06 436.795
QB50P2 19 Jan 10:51:25 10:55:24 41° 67° (ENE) 10:59:25 145.880/145.840
TIGRISAT 19 Jan 10:58:04 11:00:29 14° 274° (W) 11:02:57 435.000
ESTCUBE 1 19 Jan 11:00:51 11:03:40 16° 88° (E) 11:06:27 437.505/2401.250
BUGSAT 1 19 Jan 11:01:37 11:03:19 12° 53° (NE) 11:05:00 437.445
Gurwin Techsat 1B 19 Jan 11:10:44 11:13:02 13° 46° (NE) 11:15:21 435.225
Max Valier Satellite 19 Jan 11:13:20 11:16:52 41° 291° (WNW) 11:20:21 145.860
EO-79 19 Jan 11:22:50 11:27:03 72° 72° (ENE) 11:31:19 145.935-145.965
DUCHIFAT 1 19 Jan 11:24:22 11:28:30 58° 70° (ENE) 11:32:41 145.980
BEESAT 3 19 Jan 11:27:38 11:31:36 76° 131° (SE) 11:35:37 437.485
O/OREOS (USA 219) 19 Jan 11:29:26 11:33:30 35° 252° (WSW) 11:37:34 437.305
LO-87 19 Jan 11:29:41 11:32:59 32° 96° (E) 11:36:17 145.935 - 145.965
AO-91 19 Jan 11:34:29 11:35:43 12° 55° (NE) 11:36:57 145.960
EO-88 19 Jan 11:37:17 11:40:35 33° 293° (WNW) 11:43:53 145.990 - 145.960
Oscar 19 19 Jan 11:39:14 11:43:16 23° 56° (NE) 11:47:17 437.125/150
YUBILEINY 19 Jan 11:42:16 11:50:40 54° 271° (W) 11:59:00 435.215
DELFI C3 19 Jan 11:42:49 11:45:34 19° 300° (WNW) 11:48:20 145.870
POLYITAN 1 19 Jan 11:57:23 12:01:33 55° 259° (W) 12:05:46 437.675
AO-7 19 Jan 12:00:31 12:06:08 20° 32° (NNE) 12:11:46 .
RS-15 19 Jan 12:00:41 12:12:45 56° 335° (NNW) 12:24:27 29.354- 29.394
AIST 2D 19 Jan 12:02:29 12:04:35 15° 270° (W) 12:06:42 435.315
BEESAT 2 19 Jan 12:10:28 12:14:27 61° 128° (SE) 12:18:28 435.950
NANOSAT C BR1 19 Jan 12:15:14 12:19:14 41° 262° (W) 12:23:18 145.865
PCSat 19 Jan 12:16:10 12:21:31 57° 316° (NW) 12:26:54 145.827
QB50P2 19 Jan 12:27:42 12:31:18 27° 266° (W) 12:34:59 145.880/145.840
SO-50 19 Jan 12:27:43 12:31:39 26° 23° (NNE) 12:35:39 436.795
AO-85 19 Jan 12:30:07 12:32:59 19° 114° (ESE) 12:36:01 145.980
BUGSAT 1 19 Jan 12:33:51 12:37:56 75° 72° (ENE) 12:42:05 437.445
ESTCUBE 1 19 Jan 12:36:30 12:41:00 76° 288° (WNW) 12:45:29 437.505/2401.250
VELOX 1 19 Jan 12:45:22 12:48:56 24° 93° (E) 12:52:30 145.980
Gurwin Techsat 1B 19 Jan 12:46:45 12:51:55 54° 67° (ENE) 12:57:06 435.225
SPROUT 19 Jan 12:57:42 13:01:55 52° 100° (E) 13:06:07 437.525
EO-79 19 Jan 13:00:43 13:03:18 16° 272° (W) 13:05:54 145.935-145.965
DUCHIFAT 1 19 Jan 13:01:31 13:04:31 19° 270° (W) 13:07:34 145.980
LO-87 19 Jan 13:03:14 13:06:18 26° 295° (WNW) 13:09:21 145.935 - 145.965
BEESAT 3 19 Jan 13:06:08 13:09:32 26° 332° (NNW) 13:12:56 437.485
AO-91 19 Jan 13:08:15 13:11:38 79° 256° (WSW) 13:15:10 145.960
Oscar 19 19 Jan 13:16:54 13:22:06 74° 256° (WSW) 13:27:21 437.125/150
YUBILEINY 19 Jan 13:41:46 13:45:20 13° 295° (WNW) 13:48:53 435.215
50 SAT 19 Jan 13:48:08 13:50:05 15° 92° (E) 13:52:01 437.505
BEESAT 2 19 Jan 13:48:51 13:52:27 30° 329° (NNW) 13:56:04 435.950
AO-7 19 Jan 13:49:10 13:57:11 53° 57° (ENE) 14:05:14 .
PCSat 19 Jan 14:01:46 14:06:01 23° 339° (NNW) 14:10:18 145.827
SO-50 19 Jan 14:08:05 14:12:46 79° 45° (NE) 14:17:32 436.795
AO-85 19 Jan 14:08:45 14:12:51 74° 316° (NW) 14:17:18 145.980
BUGSAT 1 19 Jan 14:11:32 14:13:49 14° 272° (W) 14:16:07 437.445
ESTCUBE 1 19 Jan 14:14:48 14:17:05 14° 307° (NW) 14:19:20 437.505/2401.250
RS-15 19 Jan 14:16:21 14:28:01 47° 8° (N) 14:39:08 29.354- 29.394
ITAMSAT 1 19 Jan 14:19:27 14:24:03 33° 61° (ENE) 14:28:40 435.822/435.867
VELOX 1 19 Jan 14:21:23 14:25:37 48° 292° (WNW) 14:29:51 145.980
MOZHAYETS 4 19 Jan 14:22:12 14:23:44 11° 84° (E) 14:25:15
Gurwin Techsat 1B 19 Jan 14:27:36 14:32:10 29° 267° (W) 14:36:46 435.225
SPROUT 19 Jan 14:34:07 14:37:32 23° 299° (WNW) 14:40:56 437.525
UKube-1 19 Jan 14:35:54 14:39:57 38° 98° (E) 14:43:58 .
DX 1 19 Jan 14:43:27 14:47:48 69° 103° (ESE) 14:52:08 434.975-435.025
BEESAT 3 19 Jan 14:46:00 14:48:17 15° 355° (N) 14:50:34 437.485
M-CUBED/EXP-1 PRIME 19 Jan 14:51:23 14:54:52 25° 57° (ENE) 14:58:09 437.505
Oscar 19 19 Jan 14:59:59 15:02:21 13° 276° (W) 15:04:44 437.125/150
ITUPSAT 1 19 Jan 15:08:52 15:12:11 18° 89° (E) 15:15:27 437.325
DOVE 4 19 Jan 15:11:32 15:14:45 21° 61° (ENE) 15:17:55 437.250
50 SAT 19 Jan 15:19:02 15:21:59 40° 291° (WNW) 15:24:56 437.505
BEESAT 2 19 Jan 15:28:52 15:31:20 15° 352° (N) 15:33:48 435.950
CUTE-I 19 Jan 15:41:58 15:44:18 13° 46° (NE) 15:46:38 437.470
AO-7 19 Jan 15:42:00 15:50:03 50° 259° (W) 15:58:12 .
PCSat 19 Jan 15:47:40 15:51:21 18° 5° (N) 15:55:03 145.827
BEESAT 19 Jan 15:49:08 15:53:38 38° 97° (E) 15:58:06 436.000
SO-50 19 Jan 15:49:15 15:52:47 21° 245° (WSW) 15:56:20 436.795
AO-85 19 Jan 15:50:30 15:54:00 24° 340° (NNW) 15:57:44 145.980
HO-68 19 Jan 15:53:02 15:57:21 17° 39° (NE) 16:01:41 435.675
CUBESAT XI-V 19 Jan 15:55:32 15:59:16 23° 91° (E) 16:02:58 437.345
MOZHAYETS 4 19 Jan 15:57:03 16:01:44 75° 104° (ESE) 16:06:21
ITAMSAT 1 19 Jan 15:58:26 16:03:25 46° 261° (W) 16:08:25 435.822/435.867
UKube-1 19 Jan 16:12:06 16:15:53 30° 297° (WNW) 16:19:39 .
DX 1 19 Jan 16:20:29 16:23:33 19° 303° (WNW) 16:26:37 434.975-435.025
BEESAT 3 19 Jan 16:24:20 16:27:12 19° 19° (NNE) 16:30:02 437.485
M-CUBED/EXP-1 PRIME 19 Jan 16:24:52 16:29:04 49° 253° (WSW) 16:33:00 437.505
XW-2F 19 Jan 16:29:30 16:32:09 18° 61° (ENE) 16:34:48 145.980 - 146.000
RS-15 19 Jan 16:30:32 16:42:35 74° 39° (NE) 16:53:55 29.354- 29.394
KAITUO 1B 19 Jan 16:31:31 16:33:45 15° 59° (ENE) 16:36:01 145.475/437.950
XW-2D 19 Jan 16:37:04 16:40:08 23° 63° (ENE) 16:43:11 145.860 - 145.880
NUDT-PHONESAT 19 Jan 16:45:23 16:48:04 19° 61° (ENE) 16:50:46 437.300
ITUPSAT 1 19 Jan 16:45:42 16:50:33 75° 289° (WNW) 16:55:21 437.325
DOVE 4 19 Jan 16:48:01 16:52:11 53° 260° (W) 16:56:17 437.250
XW-2B 19 Jan 16:54:10 16:57:35 31° 66° (ENE) 17:01:00 145.730 - 145.750
BEESAT 2 19 Jan 17:07:39 17:10:29 18° 16° (NNE) 17:13:18 435.950
SEEDS 19 Jan 17:10:16 17:12:11 13° 55° (NE) 17:14:06 437.485
CUBEBUG 2 19 Jan 17:11:47 17:14:23 15° 54° (NE) 17:17:02 437.445
CUTE 1.7 + AOD 2 19 Jan 17:17:37 17:20:52 22° 60° (ENE) 17:24:07 437.475
CUTE-I 19 Jan 17:18:07 17:23:17 55° 67° (ENE) 17:28:28 437.470
LilacSat-2 19 Jan 17:19:20 17:23:09 61° 72° (ENE) 17:26:58 437.200
UWE-3 19 Jan 17:21:54 17:23:44 12° 51° (NE) 17:25:35 435.000/436.395/437.385
XW-2C 19 Jan 17:23:54 17:27:42 63° 72° (ENE) 17:31:31 145.795 - 145.815
BEESAT 19 Jan 17:27:01 17:31:22 35° 297° (WNW) 17:35:44 436.000
PCSat 19 Jan 17:31:38 17:36:27 31° 31° (NNE) 17:41:15 145.827
CUBESAT XI-V 19 Jan 17:32:26 17:36:57 53° 291° (WNW) 17:41:26 437.345
AO-85 19 Jan 17:32:43 17:35:54 18° 4° (N) 17:39:14 145.980
MOZHAYETS 4 19 Jan 17:35:04 17:38:23 20° 303° (WNW) 17:41:41
HO-68 19 Jan 17:36:45 17:43:39 53° 61° (ENE) 17:50:34 435.675
KKS-1 19 Jan 17:39:21 17:43:28 36° 97° (E) 17:47:35 437.445
AO-7 19 Jan 17:42:29 17:45:03 11° 282° (WNW) 17:47:37 .
ZACube-1 19 Jan 17:49:33 17:51:27 13° 52° (NE) 17:53:23 437.345
NO-84 19 Jan 17:51:12 17:52:10 11° 135° (SE) 17:53:07 435.350 FM
AO-73 19 Jan 17:57:16 17:59:19 13° 52° (NE) 18:01:24 145.935
STARS 19 Jan 18:00:38 18:04:20 26° 94° (E) 18:08:01 437.465
BEESAT 3 19 Jan 18:01:37 18:05:31 55° 41° (NE) 18:09:21 437.485
XW-2F 19 Jan 18:02:09 18:05:54 55° 259° (W) 18:09:40 145.980 - 146.000
KAITUO 1B 19 Jan 18:03:32 18:07:17 68° 258° (WSW) 18:11:03 145.475/437.950
XW-2D 19 Jan 18:10:27 18:14:06 41° 262° (W) 18:17:46 145.860 - 145.880
NUDT-PHONESAT 19 Jan 18:17:57 18:21:36 50° 260° (W) 18:25:16 437.300
ITUPSAT 1 19 Jan 18:24:52 18:27:37 15° 308° (NW) 18:30:21 437.325
XW-2B 19 Jan 18:28:23 18:31:45 29° 265° (W) 18:35:08 145.730 - 145.750
AAUSAT CUBESAT 2 19 Jan 18:30:42 18:34:17 29° 65° (ENE) 18:37:54 437.432
Oscar 11 19 Jan 18:31:43 18:34:24 16° 56° (ENE) 18:37:07 .
SEEDS 19 Jan 18:42:58 18:47:10 78° 75° (ENE) 18:51:24 437.485
RS-15 19 Jan 18:43:33 18:54:31 48° 247° (WSW) 19:04:57 29.354- 29.394
BEESAT 2 19 Jan 18:45:09 18:49:06 47° 39° (NE) 18:52:58 435.950
CUBEBUG 2 19 Jan 18:45:53 18:50:18 86° 72° (ENE) 18:54:53 437.445
CUTE 1.7 + AOD 2 19 Jan 18:52:09 18:56:22 56° 260° (W) 19:00:35 437.475
UWE-3 19 Jan 18:54:53 18:59:17 65° 72° (ENE) 19:03:51 435.000/436.395/437.385
LilacSat-2 19 Jan 18:55:24 18:57:47 16° 271° (W) 19:00:11 437.200
CUTE-I 19 Jan 18:59:05 19:03:38 28° 267° (W) 19:08:13 437.470
XW-2C 19 Jan 19:00:00 19:02:16 15° 271° (W) 19:04:33 145.795 - 145.815
XW-2A 19 Jan 19:05:24 19:08:43 49° 71° (ENE) 19:12:03 145.665 - 145.685
CUBESAT XI-V 19 Jan 19:12:20 19:13:20 11° 311° (NW) 19:14:21 437.345
AO-85 19 Jan 19:13:29 19:17:39 31° 28° (NNE) 19:22:05 145.980
